Aérodrome :
LOGIN :

S'inscrire | Disclaimer

   EN    FR    IT 

 










Légende :    VFR   VFR Marginal   IFR   IFR Intensif   IFR Très Intensif
Visi : 
Plafond : 
>= 8 km
>= 3000ft
5 à 8 km
1000 à 3000 ft
1500m à 5 km
500 à 1000 ft
800 à 1500m
200 à 500 ft
< 800m
< 200 ft
Symboles :   Orages  Brouillard  Fortes neiges  Fortes précipitations  Vent > 20 kt
SIGMETs :   Divers  Orages  Givrage  Turbulence  Onde Orograph.  Cendres Volcan.







- Altitude de l'aérodrome : 37 ft
- Code IATA : OLB


LIEO - Olbia Costa Smeralda

DERNIER METAR :
  • 181420Z 06011KT 030V090 CAVOK 30/17 Q1014

METARs EXPIRÉS :
  • 181350Z 07010KT 030V100 CAVOK 29/16 Q1015
  • 181320Z 07011KT CAVOK 30/15 Q1015
  • 181250Z 08011KT 040V100 CAVOK 30/16 Q1015
  • 181220Z 08013KT CAVOK 29/15 Q1015
  • 181150Z 07012KT 030V100 CAVOK 29/14 Q1015

TAF TAF LIEO
Valide du 18 à 12h jusqu'au 19 à 12h UTC


181100Z 1812/1912 06012KT CAVOK
BECMG 1816/1818 VRB05KT
Pas de NOTAMs connus pour ce terrain.



MET'MAP, la Météo Aéronautique d'un coup d'oeil ! - Copyright ORBIFLY Décembre 2007 - Disclaimer

ORBIFLY MET'MAP TEAM :

Programmation & Développement : Alexandra Zaïnal
Conception & Développement : Baudouin d'Aumeries
Co-Programmation & Développement : Marc-Olivier Méhu
Soutien technique & logistique : Manuel Goepfert

Contact : metmap@orbifly.com




SOURCES & CREDITS :

   NOAA